Location: Newark
(27.9675°N, 86.8869°E)
Time: 11:00:09
(UTC+00:00)

Vanguard 3 - Pass Details

Date: 01 November 2019
Orbit: 507 x 3263 km, 33.4° (Epoch: 20 November)

Event Time Altitude Azimuth Distance (km) Brightness Sun altitude
Rises 08:35:04 0° 193° (SSW) 7,170 12.7 32.8°
Reaches altitude 10° 08:44:03 10° 172° (S) 5,845 12.0 31.3°
Maximum altitude 08:51:27 14° 147° (SSE) 5,058 11.4 30.0°
Drops below altitude 10° 08:57:46 10° 121° (ESE) 4,886 11.0 28.9°
Sets 09:03:41 0° 98° (E) 5,302 10.9 27.9°
